TSC694 CYQB-TFFR

Flight info

Callsign TSC694
Flight time N/A
Altitude 32000
Route PENTU Q824 CATOG DCT REGGI/N0459F330 DCT BOS DCT BRUWN Y578 KAYYT/M078F340 DCT BOVIC/M078F330 L461 GECAL/M078F340 L458 TALSU/M078F350 L459 KEEKA/N0459F350 L459 CAFFE DCT GUYRO DCT GOUDA DCT ILURI ILURI2Z
Aircraft A321/M-SDE3FGHIRWY/LB1

Departure

Time 2026-04-28 22:13
Airport Quebec Jean Lesage International Airport (CYQB)

Arrival

Time N/A
Airport Maryse Condé International Airport (TFFR)
Time Latitude Longitude Altitude Speed Heading
2026-04-28 21:51 46.79321 -71.38434 233 ft 0 kts 115°
2026-04-28 22:00 46.79326 -71.38451 233 ft 2 kts 114°
2026-04-28 22:00 46.79330 -71.38464 233 ft 2 kts 115°
2026-04-28 22:01 46.79335 -71.38478 233 ft 2 kts 115°
2026-04-28 22:01 46.79340 -71.38497 233 ft 2 kts 114°
2026-04-28 22:01 46.79347 -71.38516 234 ft 2 kts 122°
2026-04-28 22:01 46.79356 -71.38534 233 ft 1 kts 128°
2026-04-28 22:02 46.79363 -71.38544 233 ft 1 kts 178°
2026-04-28 22:02 46.79372 -71.38539 233 ft 1 kts 232°
2026-04-28 22:02 46.79381 -71.38522 233 ft 2 kts 223°
2026-04-28 22:02 46.79393 -71.38507 233 ft 2 kts 224°
2026-04-28 22:03 46.79401 -71.38495 233 ft 0 kts 225°
2026-04-28 22:03 46.79402 -71.38494 233 ft 0 kts 225°
2026-04-28 22:06 46.79401 -71.38496 233 ft 0 kts 225°
2026-04-28 22:07 46.79391 -71.38511 233 ft 4 kts 234°
2026-04-28 22:07 46.79392 -71.38579 233 ft 9 kts 277°
2026-04-28 22:07 46.79360 -71.38673 234 ft 11 kts 227°
2026-04-28 22:07 46.79308 -71.38751 235 ft 11 kts 224°
2026-04-28 22:08 46.79250 -71.38831 237 ft 11 kts 224°
2026-04-28 22:08 46.79189 -71.38915 238 ft 12 kts 224°
2026-04-28 22:08 46.79123 -71.39010 238 ft 13 kts 225°
2026-04-28 22:08 46.79055 -71.39109 240 ft 14 kts 225°
2026-04-28 22:09 46.78981 -71.39214 240 ft 15 kts 224°
2026-04-28 22:09 46.78918 -71.39295 241 ft 11 kts 219°
2026-04-28 22:09 46.78844 -71.39373 242 ft 14 kts 213°
2026-04-28 22:09 46.78761 -71.39467 242 ft 16 kts 225°
2026-04-28 22:10 46.78675 -71.39591 243 ft 18 kts 225°
2026-04-28 22:10 46.78581 -71.39728 244 ft 20 kts 225°
2026-04-28 22:10 46.78476 -71.39879 245 ft 21 kts 225°
2026-04-28 22:10 46.78363 -71.40038 245 ft 23 kts 224°
2026-04-28 22:11 46.78249 -71.40202 246 ft 22 kts 224°
2026-04-28 22:11 46.78196 -71.40395 246 ft 20 kts 270°
2026-04-28 22:11 46.78222 -71.40576 245 ft 9 kts 307°
2026-04-28 22:11 46.78268 -71.40600 245 ft 8 kts 42°
2026-04-28 22:12 46.78278 -71.40585 245 ft 0 kts 45°
2026-04-28 22:12 46.78377 -71.40440 245 ft 52 kts 45°
2026-04-28 22:12 46.78794 -71.39838 243 ft 115 kts 45°
2026-04-28 22:12 46.79498 -71.38823 235 ft 168 kts 46°
2026-04-28 22:13 46.80335 -71.37591 780 ft 169 kts 47°
2026-04-28 22:13 46.81136 -71.36416 1479 ft 166 kts 47°
2026-04-28 22:13 46.81961 -71.35217 2082 ft 167 kts 48°
2026-04-28 22:13 46.82784 -71.34032 2390 ft 172 kts 48°
2026-04-28 22:14 46.83663 -71.32775 2643 ft 182 kts 48°
2026-04-28 22:14 46.84598 -71.31446 2872 ft 194 kts 48°
2026-04-28 22:14 46.85586 -71.30042 3108 ft 206 kts 47°
2026-04-28 22:14 46.86641 -71.28516 3368 ft 218 kts 54°
2026-04-28 22:15 46.87207 -71.26482 3507 ft 227 kts 91°
2026-04-28 22:15 46.86879 -71.24196 3624 ft 238 kts 122°
2026-04-28 22:15 46.85925 -71.22388 4038 ft 217 kts 132°
2026-04-28 22:15 46.85004 -71.20667 4386 ft 217 kts 130°
2026-04-28 22:16 46.83927 -71.19149 4733 ft 218 kts 140°
2026-04-28 22:16 46.82764 -71.17699 5071 ft 221 kts 140°
2026-04-28 22:16 46.81584 -71.16157 5320 ft 237 kts 138°
2026-04-28 22:16 46.80354 -71.14461 5682 ft 248 kts 137°
2026-04-28 22:17 46.79053 -71.12786 6026 ft 251 kts 150°
2026-04-28 22:17 46.77407 -71.12051 6368 ft 251 kts 179°
2026-04-28 22:17 46.75704 -71.12543 6733 ft 259 kts 205°
2026-04-28 22:17 46.74280 -71.14218 7075 ft 270 kts 232°
2026-04-28 22:18 46.73427 -71.16667 7434 ft 275 kts 244°
2026-04-28 22:18 46.72661 -71.19243 7783 ft 277 kts 243°
2026-04-28 22:18 46.71888 -71.21799 8130 ft 279 kts 243°
2026-04-28 22:18 46.71091 -71.24400 8476 ft 281 kts 243°
2026-04-28 22:19 46.70291 -71.27003 8828 ft 283 kts 243°
2026-04-28 22:19 46.69485 -71.29620 9189 ft 285 kts 243°
2026-04-28 22:19 46.68676 -71.32243 9540 ft 287 kts 243°
2026-04-28 22:19 46.67857 -71.34888 9883 ft 289 kts 243°
2026-04-28 22:20 46.67025 -71.37568 10218 ft 292 kts 243°
2026-04-28 22:20 46.66174 -71.40300 10571 ft 301 kts 243°
2026-04-28 22:20 46.65299 -71.43115 10924 ft 311 kts 243°
2026-04-28 22:20 46.64404 -71.45992 11280 ft 320 kts 243°
2026-04-28 22:21 46.63467 -71.48999 11625 ft 329 kts 243°
2026-04-28 22:21 46.62513 -71.52052 11956 ft 337 kts 243°
2026-04-28 22:21 46.61542 -71.55167 12296 ft 345 kts 243°
2026-04-28 22:21 46.60540 -71.58377 12643 ft 353 kts 243°
2026-04-28 22:22 46.59507 -71.61674 12975 ft 360 kts 244°
2026-04-28 22:22 46.58466 -71.64995 13300 ft 367 kts 244°
2026-04-28 22:22 46.57394 -71.68396 13623 ft 373 kts 242°
2026-04-28 22:22 46.56162 -71.71738 13977 ft 377 kts 237°
2026-04-28 22:23 46.54725 -71.74898 14320 ft 378 kts 231°
2026-04-28 22:23 46.54306 -71.75710 14412 ft 379 kts 230°